Location: Chamerau
(49.1969°N, 12.7525°E)
Time: 06:30:20
(UTC+00:00)

Exosat Rocket - Pass Details

Date: 18 September 2020
Orbit: 761 x 2514 km, 72.3° (Epoch: 27 October)

Event Time Altitude Azimuth Distance (km) Brightness Sun altitude
Rises 18:59:01 0° 184° (S) 3,696 6.8 -17.3°
Reaches altitude 10° 19:01:52 10° 177° (S) 2,580 6.0 -17.8°
Maximum altitude 19:07:06 42° 108° (ESE) 1,130 3.9 -18.5°
Drops below altitude 10° 19:11:47 10° 39° (NE) 2,303 5.8 -19.2°
Sets 19:14:11 0° 32° (NNE) 3,254 6.7 -19.6°
